CZ-6A DEB

Satellite information

Favourite Embed

Satellite Type and Status

DEBRISIN ORBIT

Key statistics

Satellite CZ-6A DEB at a glance.

Uptime

1129

Days in orbit

Revolutions

≈ 14.6

Per day

Orbit

SSO

Sun Synchronous Orbit

Inclination

98.9

Latest

Satellite identification and parameters

Extended collection of information and parameters for CZ-6A DEB.

Object identification

Identified? True

Debris? True

Object name: CZ-6A DEB

International designator: 2022-151AFM

Object number (NORAD): 56637

Object ID (CCSDS): 56637

Country: PEOPLES REPUBLIC OF CHINA (PRC)

Current information (Y/N): Y

RCS size: SMALL

Orbital parameters

Period: 98.961 minutes

Inclination: 98.871 deg

SMA: 7087.103 km

Apoapsis: 790.56 km

Periapsis: 627.375 km

RAAN: 58.6412 deg

Eccentricy: 0.01151284

Argument of periapsis: 216.8842 deg

Mean anomaly: 142.4396 deg

Mean motion: 14.55122866 rev/day

Mean motion (dot): 0.00018281 rev/day2

B* drag term: 0.0038757066 1/REarth

Two-line elements (TLE)

Creation date: Dec. 12, 2025, 10:14 a.m.

Reference frame: TEME

Reference center: EARTH

Epoch: Dec. 12, 2025, 3:23 a.m. UTC

TLE line 0: 0 CZ-6A DEB

TLE line 1: 1 56637U 22151AFM 25346.14164790 .00018281 00000-0 38757-2 0 9992

TLE line 2: 2 56637 98.8710 58.6412 0115128 216.8842 142.4396 14.55122866149886

Live tracking on map

Real-time ground track for satellite CZ-6A DEB.

In-orbit conjunctions

A list of the most updated potential collisions computed for object CZ-6A DEB.

Target Orbit TCA Probability of collision Miss distance Type
CZ-2D R/B SSO 2025-05-21 18:48:15 0.0001412965 315.0 (m) ROCKET BODY
COSMOS 44 LEO 2024-06-16 14:30:59 0.0001472267 420.0 (m) PAYLOAD

Associated space launch

Chinese satellite reported for atmospheric/ocean/environmental/spatial parameter research purposes, details TBD.

CZ-6A DEB was lifted into orbit during the mission ‘Long March 6A | Yunhai 3’, on board a Long March 6A space rocket.

The launch took place on Nov. 11, 2022, 10:52 p.m. from Launch Complex 9A.

For more information about the launch, click the button.

Launch to space Long March 6A | Yunhai 3
Long March 6A | Yunhai 3

Agency: N/A

Status: Launch Successful

Launch date: Nov. 11, 2022, 10:52 p.m. UTC

Rocket: Long March 6A

Launch pad: Launch Complex 9A

Location: Taiyuan Satellite Launch Center, People's Republic of China

...

Latest news about this satellite

There are no fresh news available about this satellite. Check back as we update our databases every day.


Newsletter sign-up

Weekly statistics, charts and insights to help you stay on top of the space industry.